This demonstration page uses our WeatherBlox Daily Observations layout. Learn more.

Left ArrowRight Arrow

Hourly Observations for February 17, 2022

Temp ( °F °C ) Dew Point ( °F °C ) Humidity (%) Winds ( mph kmh ) Pressure ( in mb ) Visibility ( mi km ) Precip ( " mm )
12:56 am 00:56 Mostly Cloudy 26 -3.5 10 -12.4 51 51 N 17 28 30.20 1023 10 16 0.00 0.00
1:56 am 01:56 Cloudy 25 -3.8 7 -14 45 45 N 15 24 30.19 1023 10 16 0.00 0.00
2:56 am 02:56 Cloudy 24 -4.5 3 -16.1 40 40 N 17 28 30.25 1025 10 16 0.00 0.00
3:56 am 03:56 Cloudy 22 -5.8 2 -16.7 42 42 N 17 28 30.25 1024 10 16 0.00 0.00
4:56 am 04:56 Cloudy 20 -6.5 4 -15.7 48 48 N 16 26 30.28 1025 10 16 0.00 0.00
5:56 am 05:56 Cloudy 18 -7.9 2 -16.5 50 50 N 17 28 30.29 1026 10 16 0.00 0.00
6:56 am 06:56 Mostly Cloudy 16 -8.9 0 -17.9 48 48 N 12 19 30.34 1027 10 16 0.00 0.00
7:56 am 07:56 Cloudy 14 -9.8 -4 -19.8 44 44 N 12 19 30.36 1028 10 16 0.00 0.00
8:56 am 08:56 Mostly Cloudy 14 -10.1 -4 -20.1 44 44 N 15 24 30.36 1028 10 16 0.00 0.00
9:56 am 09:56 Mostly Cloudy 14 -10.2 -4 -19.9 45 45 N 13 20 30.38 1029 10 16 0.00 0.00
10:56 am 10:56 Mostly Cloudy 15 -9.3 -4 -20.2 41 41 N 14 22 30.38 1029 10 16 0.00 0.00
11:56 am 11:56 Partly Cloudy 17 -8.5 -6 -20.9 36 36 N 15 24 30.38 1029 10 16 0.00 0.00
12:56 pm 12:56 Cloudy 20 -6.5 -7 -21.6 29 29 N 12 19 30.35 1028 10 16 0.00 0.00
1:56 pm 13:56 Mostly Cloudy 22 -5.4 -7 -21.9 26 26 NNW 13 20 30.32 1027 10 16 0.00 0.00
2:56 pm 14:56 Sunny 25 -4 -8 -22.1 23 23 NW 10 17 30.31 1026 10 16 0.00 0.00
3:56 pm 15:56 Sunny 27 -2.9 -8 -22.2 21 21 NNW 10 17 30.30 1026 10 16 0.00 0.00
4:56 pm 16:56 Sunny 26 -3.1 -8 -22.4 21 21 NW 9 15 30.30 1026 10 16 0.00 0.00
5:56 pm 17:56 Sunny 24 -4.4 -9 -22.5 23 23 WNW 5 7 30.30 1026 10 16 0.00 0.00
6:56 pm 18:56 Clear 23 -4.8 -7 -21.9 25 25 Calm 30.31 1026 10 16 0.00 0.00
7:56 pm 19:56 Clear 19 -7.2 -4 -20.1 35 35 Calm 30.30 1026 10 16 0.00 0.00
8:56 pm 20:56 Clear 19 -7.5 0 -17.7 44 44 SE 5 7 30.28 1025 10 16 0.00 0.00
9:56 pm 21:56 Clear 15 -9.4 1 -17.5 52 52 Calm 30.29 1026 10 16 0.00 0.00
10:56 pm 22:56 Clear 14 -10 0 -17.6 54 54 Calm 30.28 1026 10 16 0.00 0.00
11:56 pm 23:56 Clear 13 -10.3 -1 -18.3 52 52 SE 5 7 30.26 1025 10 16 0.00 0.00

Powered by AerisWeather